Time,TemperatureF,DewpointF,PressureIn,WindDirection,WindDirectionDegrees,WindSpeedMPH,WindSpeedGustMPH,Humidity,HourlyPrecipIn,Conditions,Clouds,dailyrainin,SoftwareType,DateUTC
2013-03-18 00:00:00,26.2,19.0,30.24,ESE,106,9.0,14.0,74,0.00,,,0.00,meteohub,2013-03-18 04:00:00,
2013-03-18 00:01:00,26.2,19.0,30.24,East,87,12.0,14.0,74,0.00,,,0.00,meteohub,2013-03-18 04:01:00,
2013-03-18 00:06:00,26.2,19.0,30.24,East,97,13.0,15.0,74,0.00,,,0.00,meteohub,2013-03-18 04:06:00,
2013-03-18 00:11:00,26.2,19.0,30.23,East,89,11.0,15.0,74,0.00,,,0.00,meteohub,2013-03-18 04:11:00,
2013-03-18 00:16:00,26.1,18.7,30.23,East,86,13.0,17.0,73,0.00,,,0.00,meteohub,2013-03-18 04:16:00,
2013-03-18 00:21:00,26.1,18.7,30.23,East,91,15.0,17.0,73,0.00,,,0.00,meteohub,2013-03-18 04:21:00,
2013-03-18 00:26:00,26.1,18.3,30.23,East,93,11.0,17.0,72,0.00,,,0.00,meteohub,2013-03-18 04:26:00,
2013-03-18 00:32:00,26.2,19.0,30.23,East,82,11.0,17.0,74,0.00,,,0.00,meteohub,2013-03-18 04:32:00,
2013-03-18 00:37:00,26.1,18.7,30.22,East,80,11.0,17.0,73,0.00,,,0.00,meteohub,2013-03-18 04:37:00,
2013-03-18 00:42:00,25.9,18.7,30.22,East,86,14.0,17.0,74,0.00,,,0.00,meteohub,2013-03-18 04:42:00,
2013-03-18 00:47:00,25.5,18.1,30.22,East,86,13.0,17.0,73,0.00,,,0.00,meteohub,2013-03-18 04:47:00,
2013-03-18 00:52:00,25.3,18.0,30.22,East,85,12.0,17.0,73,0.00,,,0.00,meteohub,2013-03-18 04:52:00,
2013-03-18 00:57:00,25.3,18.5,30.22,East,83,13.0,17.0,75,0.00,,,0.00,meteohub,2013-03-18 04:57:00,
2013-03-18 01:02:00,25.3,18.1,30.22,East,84,11.0,16.0,74,0.00,,,0.00,meteohub,2013-03-18 05:02:00,
2013-03-18 01:07:00,25.0,18.0,30.21,East,90,9.0,15.0,74,0.00,,,0.00,meteohub,2013-03-18 05:07:00,
2013-03-18 01:12:00,25.0,18.1,30.21,East,86,11.0,14.0,75,0.00,,,0.00,meteohub,2013-03-18 05:12:00,
2013-03-18 01:17:00,25.0,18.1,30.21,East,86,9.0,14.0,75,0.00,,,0.00,meteohub,2013-03-18 05:17:00,
2013-03-18 01:22:00,25.0,18.5,30.21,East,80,8.0,13.0,76,0.00,,,0.00,meteohub,2013-03-18 05:22:00,
2013-03-18 01:27:00,25.0,18.5,30.21,East,85,10.0,13.0,76,0.00,,,0.00,meteohub,2013-03-18 05:27:00,
2013-03-18 01:33:00,24.6,17.8,30.21,ENE,77,13.0,13.0,75,0.00,,,0.00,meteohub,2013-03-18 05:33:00,
2013-03-18 01:38:00,24.6,17.8,30.20,ENE,78,11.0,13.0,75,0.00,,,0.00,meteohub,2013-03-18 05:38:00,
2013-03-18 01:43:00,24.6,17.8,30.20,East,83,11.0,14.0,75,0.00,,,0.00,meteohub,2013-03-18 05:43:00,
2013-03-18 01:48:00,24.8,18.0,30.20,East,88,12.0,14.0,75,0.00,,,0.00,meteohub,2013-03-18 05:48:00,
2013-03-18 01:53:00,24.8,18.0,30.20,East,91,12.0,14.0,75,0.00,,,0.00,meteohub,2013-03-18 05:53:00,
2013-03-18 01:58:00,25.0,18.5,30.19,East,88,10.0,15.0,76,0.00,,,0.00,meteohub,2013-03-18 05:58:00,
2013-03-18 02:03:00,25.0,18.1,30.19,East,84,14.0,15.0,75,0.00,,,0.00,meteohub,2013-03-18 06:03:00,
2013-03-18 02:08:00,25.0,18.1,30.19,East,84,11.0,17.0,75,0.00,,,0.00,meteohub,2013-03-18 06:08:00,
2013-03-18 02:13:00,25.0,18.0,30.19,East,100,10.0,17.0,74,0.00,,,0.00,meteohub,2013-03-18 06:13:00,
2013-03-18 02:18:00,25.0,18.1,30.19,East,84,12.0,17.0,75,0.00,,,0.00,meteohub,2013-03-18 06:18:00,
2013-03-18 02:23:00,24.8,17.8,30.19,East,80,12.0,16.0,74,0.00,,,0.00,meteohub,2013-03-18 06:23:00,
2013-03-18 02:28:00,24.8,18.0,30.18,ENE,76,13.0,15.0,75,0.00,,,0.00,meteohub,2013-03-18 06:28:00,
2013-03-18 02:33:00,24.6,17.6,30.19,East,82,11.0,15.0,74,0.00,,,0.00,meteohub,2013-03-18 06:33:00,
2013-03-18 02:38:00,24.6,17.8,30.19,East,85,10.0,15.0,75,0.00,,,0.00,meteohub,2013-03-18 06:38:00,
2013-03-18 02:43:00,24.6,17.8,30.18,East,88,10.0,14.0,75,0.00,,,0.00,meteohub,2013-03-18 06:43:00,
2013-03-18 02:48:00,24.6,18.1,30.18,East,83,9.0,13.0,76,0.00,,,0.00,meteohub,2013-03-18 06:48:00,
2013-03-18 02:54:00,24.6,18.1,30.18,East,86,9.0,13.0,76,0.00,,,0.00,meteohub,2013-03-18 06:54:00,
2013-03-18 02:59:00,25.0,18.9,30.18,East,88,9.0,12.0,77,0.00,,,0.00,meteohub,2013-03-18 06:59:00,
2013-03-18 03:04:00,25.0,18.5,30.18,East,92,6.0,11.0,76,0.00,,,0.00,meteohub,2013-03-18 07:04:00,
2013-03-18 03:09:00,25.0,18.5,30.18,East,93,7.0,11.0,76,0.00,,,0.00,meteohub,2013-03-18 07:09:00,
2013-03-18 03:14:00,25.0,18.5,30.17,East,89,6.0,11.0,76,0.00,,,0.00,meteohub,2013-03-18 07:14:00,
2013-03-18 03:19:00,25.0,18.5,30.17,East,84,9.0,11.0,76,0.00,,,0.00,meteohub,2013-03-18 07:19:00,
2013-03-18 03:24:00,25.0,18.5,30.17,East,84,9.0,11.0,76,0.00,,,0.00,meteohub,2013-03-18 07:24:00,
2013-03-18 03:29:00,25.0,18.5,30.17,East,83,7.0,12.0,76,0.00,,,0.00,meteohub,2013-03-18 07:29:00,
2013-03-18 03:34:00,25.2,18.7,30.17,East,87,9.0,12.0,76,0.00,,,0.00,meteohub,2013-03-18 07:34:00,
2013-03-18 03:39:00,25.2,18.7,30.17,East,81,7.0,12.0,76,0.00,,,0.00,meteohub,2013-03-18 07:39:00,
2013-03-18 03:44:00,25.5,19.4,30.17,East,94,6.0,10.0,77,0.00,,,0.00,meteohub,2013-03-18 07:44:00,
2013-03-18 03:49:00,25.3,19.2,30.17,East,80,9.0,10.0,77,0.00,,,0.00,meteohub,2013-03-18 07:49:00,
2013-03-18 03:54:00,25.9,19.8,30.16,East,84,6.0,10.0,77,0.00,,,0.00,meteohub,2013-03-18 07:54:00,
2013-03-18 03:59:00,26.1,19.8,30.16,East,93,5.0,10.0,77,0.00,,,0.00,meteohub,2013-03-18 07:59:00,
2013-03-18 04:04:00,26.1,19.8,30.16,East,92,4.0,10.0,77,0.00,,,0.00,meteohub,2013-03-18 08:04:00,
2013-03-18 04:09:00,26.2,19.8,30.16,East,97,4.0,10.0,76,0.00,,,0.00,meteohub,2013-03-18 08:09:00,
2013-03-18 04:14:00,26.2,19.4,30.16,East,90,5.0,9.0,75,0.00,,,0.00,meteohub,2013-03-18 08:14:00,
2013-03-18 04:19:00,26.4,19.6,30.15,East,88,7.0,9.0,75,0.00,,,0.00,meteohub,2013-03-18 08:19:00,
2013-03-18 04:24:00,26.8,19.9,30.14,ENE,76,4.0,9.0,75,0.00,,,0.00,meteohub,2013-03-18 08:24:00,
2013-03-18 04:30:00,26.8,19.9,30.14,East,86,5.0,11.0,75,0.00,,,0.00,meteohub,2013-03-18 08:30:00,
2013-03-18 04:35:00,27.0,19.8,30.14,East,98,4.0,12.0,74,0.00,,,0.00,meteohub,2013-03-18 08:35:00,
2013-03-18 04:40:00,27.0,19.8,30.13,East,88,6.0,12.0,74,0.00,,,0.00,meteohub,2013-03-18 08:40:00,
2013-03-18 04:45:00,27.1,19.6,30.13,East,101,4.0,9.0,73,0.00,,,0.00,meteohub,2013-03-18 08:45:00,
2013-03-18 04:50:00,27.3,19.8,30.12,East,82,9.0,10.0,73,0.00,,,0.00,meteohub,2013-03-18 08:50:00,
2013-03-18 04:55:00,27.7,20.1,30.12,East,96,11.0,12.0,73,0.00,,,0.00,meteohub,2013-03-18 08:55:00,
2013-03-18 05:00:00,27.7,20.1,30.12,East,92,7.0,12.0,73,0.00,,,0.00,meteohub,2013-03-18 09:00:00,
2013-03-18 05:05:00,27.9,20.3,30.12,East,84,5.0,13.0,73,0.00,,,0.00,meteohub,2013-03-18 09:05:00,
2013-03-18 05:10:00,28.0,20.5,30.12,East,93,6.0,13.0,73,0.00,,,0.00,meteohub,2013-03-18 09:10:00,
2013-03-18 05:15:00,28.0,20.1,30.12,East,87,9.0,13.0,72,0.00,,,0.00,meteohub,2013-03-18 09:15:00,
2013-03-18 05:20:00,28.2,20.7,30.12,East,92,8.0,13.0,73,0.00,,,0.00,meteohub,2013-03-18 09:20:00,
2013-03-18 05:25:00,28.4,20.5,30.11,East,99,3.0,13.0,72,0.00,,,0.00,meteohub,2013-03-18 09:25:00,
2013-03-18 05:30:00,28.6,20.7,30.11,East,99,5.0,13.0,72,0.00,,,0.00,meteohub,2013-03-18 09:30:00,
2013-03-18 05:36:00,28.8,20.8,30.11,SE,126,11.0,17.0,72,0.00,,,0.00,meteohub,2013-03-18 09:36:00,
2013-03-18 05:41:00,28.8,20.5,30.10,ESE,120,15.0,17.0,71,0.00,,,0.00,meteohub,2013-03-18 09:41:00,
2013-03-18 05:46:00,28.9,20.7,30.10,ESE,104,5.0,17.0,71,0.00,,,0.00,meteohub,2013-03-18 09:46:00,
2013-03-18 05:51:00,29.1,20.8,30.10,East,88,9.0,17.0,71,0.00,,,0.00,meteohub,2013-03-18 09:51:00,
2013-03-18 05:56:00,29.3,21.0,30.09,ESE,103,7.0,17.0,71,0.00,,,0.00,meteohub,2013-03-18 09:56:00,
2013-03-18 06:01:00,29.5,21.2,30.09,ESE,116,11.0,17.0,71,0.00,,,0.00,meteohub,2013-03-18 10:01:00,
2013-03-18 06:06:00,29.5,21.2,30.09,East,86,9.0,15.0,71,0.00,,,0.00,meteohub,2013-03-18 10:06:00,
2013-03-18 06:12:00,29.7,21.4,30.09,East,92,11.0,16.0,71,0.00,,,0.00,meteohub,2013-03-18 10:12:00,
2013-03-18 06:17:00,29.7,21.7,30.08,East,93,14.0,23.0,72,0.00,,,0.00,meteohub,2013-03-18 10:17:00,
2013-03-18 06:22:00,29.8,21.9,30.08,East,93,15.0,23.0,72,0.00,,,0.00,meteohub,2013-03-18 10:22:00,
2013-03-18 06:27:00,29.8,21.9,30.08,East,97,13.0,23.0,72,0.00,,,0.00,meteohub,2013-03-18 10:27:00,
2013-03-18 06:32:00,30.0,21.7,30.08,East,93,10.0,18.0,71,0.00,,,0.00,meteohub,2013-03-18 10:32:00,
2013-03-18 06:37:00,30.0,21.7,30.08,ESE,105,15.0,18.0,71,0.00,,,0.00,meteohub,2013-03-18 10:37:00,
2013-03-18 06:42:00,30.2,21.9,30.07,East,98,16.0,16.0,71,0.00,,,0.00,meteohub,2013-03-18 10:42:00,
2013-03-18 06:47:00,30.4,22.1,30.07,ESE,107,12.0,17.0,71,0.00,,,0.00,meteohub,2013-03-18 10:47:00,
2013-03-18 06:52:00,30.4,22.1,30.07,ENE,69,11.0,17.0,71,0.00,,,0.00,meteohub,2013-03-18 10:52:00,
2013-03-18 06:57:00,30.6,22.3,30.06,ESE,111,9.0,17.0,71,0.00,,,0.00,meteohub,2013-03-18 10:57:00,
2013-03-18 07:02:00,30.6,22.6,30.06,East,97,11.0,15.0,72,0.00,,,0.00,meteohub,2013-03-18 11:02:00,
2013-03-18 07:07:00,30.7,22.5,30.06,East,101,5.0,15.0,71,0.00,,,0.00,meteohub,2013-03-18 11:07:00,
2013-03-18 07:12:00,30.7,22.5,30.06,ESE,105,4.0,15.0,71,0.00,,,0.00,meteohub,2013-03-18 11:12:00,
2013-03-18 07:18:00,30.7,22.5,30.06,East,96,4.0,15.0,71,0.00,,,0.00,meteohub,2013-03-18 11:18:00,
2013-03-18 07:23:00,30.7,22.5,30.06,North,0,12.0,14.0,71,0.00,,,0.00,meteohub,2013-03-18 11:23:00,
2013-03-18 07:28:00,30.9,22.6,30.06,ESE,106,10.0,14.0,71,0.00,,,0.00,meteohub,2013-03-18 11:28:00,
2013-03-18 07:33:00,30.9,22.6,30.06,ESE,107,7.0,18.0,71,0.00,,,0.00,meteohub,2013-03-18 11:33:00,
2013-03-18 07:38:00,31.1,22.5,30.06,North,0,4.0,22.0,70,0.00,,,0.00,meteohub,2013-03-18 11:38:00,
2013-03-18 07:43:00,31.3,23.0,30.05,East,96,5.0,22.0,71,0.00,,,0.00,meteohub,2013-03-18 11:43:00,
2013-03-18 07:48:00,31.3,23.0,30.05,North,0,12.0,21.0,71,0.00,,,0.00,meteohub,2013-03-18 11:48:00,
2013-03-18 07:53:00,31.3,23.0,30.04,East,101,7.0,21.0,71,0.00,,,0.00,meteohub,2013-03-18 11:53:00,
2013-03-18 07:58:00,31.3,23.4,30.04,ESE,120,13.0,20.0,72,0.00,,,0.00,meteohub,2013-03-18 11:58:00,
2013-03-18 08:03:00,31.3,23.0,30.04,East,94,12.0,20.0,71,0.00,,,0.00,meteohub,2013-03-18 12:03:00,
2013-03-18 08:08:00,31.3,23.4,30.03,ESE,112,4.0,20.0,72,0.00,,,0.00,meteohub,2013-03-18 12:08:00,
2013-03-18 08:13:00,31.3,23.0,30.03,ESE,123,11.0,20.0,71,0.00,,,0.00,meteohub,2013-03-18 12:13:00,
2013-03-18 08:18:00,31.3,23.0,30.03,ESE,119,11.0,20.0,71,0.00,,,0.00,meteohub,2013-03-18 12:18:00,
2013-03-18 08:23:00,31.3,23.0,30.03,East,98,7.0,18.0,71,0.00,,,0.00,meteohub,2013-03-18 12:23:00,
2013-03-18 08:28:00,31.5,23.5,30.03,ESE,113,11.0,18.0,72,0.00,,,0.00,meteohub,2013-03-18 12:28:00,
2013-03-18 08:33:00,31.5,23.2,30.02,South,188,11.0,16.0,71,0.00,,,0.00,meteohub,2013-03-18 12:33:00,
2013-03-18 08:38:00,31.5,23.5,30.02,ESE,105,9.0,16.0,72,0.00,,,0.00,meteohub,2013-03-18 12:38:00,
2013-03-18 08:43:00,31.5,23.5,30.01,ESE,115,9.0,20.0,72,0.00,,,0.00,meteohub,2013-03-18 12:43:00,
2013-03-18 08:49:00,31.6,23.4,30.01,ESE,110,12.0,20.0,71,0.00,,,0.00,meteohub,2013-03-18 12:49:00,
2013-03-18 08:54:00,31.6,23.4,30.00,North,0,10.0,22.0,71,0.00,,,0.00,meteohub,2013-03-18 12:54:00,
2013-03-18 08:59:00,31.6,23.4,30.00,North,0,10.0,22.0,71,0.00,,,0.00,meteohub,2013-03-18 12:59:00,
2013-03-18 09:04:00,31.6,23.7,29.99,ESE,103,18.0,22.0,72,0.00,,,0.00,meteohub,2013-03-18 13:04:00,
2013-03-18 09:09:00,31.8,23.9,29.98,East,96,11.0,20.0,72,0.00,,,0.00,meteohub,2013-03-18 13:09:00,
2013-03-18 09:14:00,31.8,23.9,29.98,ESE,117,4.0,20.0,72,0.00,,,0.00,meteohub,2013-03-18 13:14:00,
2013-03-18 09:19:00,32.0,24.1,29.98,ESE,106,14.0,27.0,72,0.00,,,0.00,meteohub,2013-03-18 13:19:00,
2013-03-18 09:24:00,32.0,24.1,29.97,ESE,118,17.0,27.0,72,0.00,,,0.00,meteohub,2013-03-18 13:24:00,
2013-03-18 09:29:00,32.2,24.3,29.97,ESE,117,16.0,27.0,72,0.00,,,0.00,meteohub,2013-03-18 13:29:00,
2013-03-18 09:34:00,32.2,24.3,29.96,East,100,7.0,22.0,72,0.00,,,0.00,meteohub,2013-03-18 13:34:00,
2013-03-18 09:39:00,32.2,24.4,29.96,ESE,111,15.0,22.0,73,0.00,,,0.00,meteohub,2013-03-18 13:39:00,
2013-03-18 09:44:00,32.4,24.3,29.96,North,0,15.0,22.0,72,0.00,,,0.00,meteohub,2013-03-18 13:44:00,
2013-03-18 09:49:00,32.4,24.6,29.95,ESE,113,12.0,21.0,73,0.00,,,0.00,meteohub,2013-03-18 13:49:00,
2013-03-18 09:54:00,32.5,24.4,29.95,ESE,109,16.0,25.0,72,0.00,,,0.00,meteohub,2013-03-18 13:54:00,
2013-03-18 10:00:00,32.5,24.8,29.94,ESE,107,12.0,25.0,73,0.00,,,0.00,meteohub,2013-03-18 14:00:00,
2013-03-18 10:05:00,32.5,24.8,29.94,SE,130,21.0,25.0,73,0.00,,,0.00,meteohub,2013-03-18 14:05:00,
2013-03-18 10:10:00,32.7,24.6,29.94,East,94,13.0,23.0,72,0.00,,,0.00,meteohub,2013-03-18 14:10:00,
2013-03-18 10:15:00,32.9,25.2,29.94,South,171,25.0,25.0,73,0.00,,,0.00,meteohub,2013-03-18 14:15:00,
2013-03-18 10:20:00,32.9,25.2,29.94,ESE,115,15.0,27.0,73,0.00,,,0.00,meteohub,2013-03-18 14:20:00,
2013-03-18 10:25:00,32.9,25.2,29.94,ESE,105,10.0,28.0,73,0.00,,,0.00,meteohub,2013-03-18 14:25:00,
2013-03-18 10:30:00,33.1,25.3,29.94,SE,128,15.0,24.0,73,0.00,,,0.00,meteohub,2013-03-18 14:30:00,
2013-03-18 10:35:00,33.1,25.3,29.94,ESE,121,6.0,22.0,73,0.00,,,0.00,meteohub,2013-03-18 14:35:00,
2013-03-18 10:40:00,33.1,25.3,29.94,ESE,112,13.0,24.0,73,0.00,,,0.00,meteohub,2013-03-18 14:40:00,
2013-03-18 10:45:00,33.1,25.3,29.93,SE,129,12.0,24.0,73,0.00,,,0.00,meteohub,2013-03-18 14:45:00,
2013-03-18 10:50:00,33.3,25.5,29.93,SE,130,15.0,24.0,73,0.00,,,0.00,meteohub,2013-03-18 14:50:00,
2013-03-18 10:55:00,33.3,26.2,29.92,SE,129,19.0,25.0,75,0.00,,,0.00,meteohub,2013-03-18 14:55:00,
2013-03-18 11:00:00,33.1,26.6,29.92,SE,132,13.0,29.0,77,0.00,,,0.00,meteohub,2013-03-18 15:00:00,
2013-03-18 11:05:00,33.1,27.0,29.92,North,0,10.0,29.0,78,0.00,,,0.00,meteohub,2013-03-18 15:05:00,
2013-03-18 11:10:00,32.9,27.7,29.91,SE,135,9.0,21.0,81,0.00,,,0.00,meteohub,2013-03-18 15:10:00,
2013-03-18 11:16:00,32.5,28.2,29.91,North,0,11.0,18.0,84,0.00,,,0.00,meteohub,2013-03-18 15:16:00,
2013-03-18 11:21:00,32.4,28.4,29.90,ENE,71,6.0,18.0,85,0.00,,,0.00,meteohub,2013-03-18 15:21:00,
2013-03-18 11:26:00,32.2,28.8,29.90,ESE,114,9.0,17.0,87,0.00,,,0.00,meteohub,2013-03-18 15:26:00,
2013-03-18 11:31:00,31.8,28.8,29.89,ESE,117,14.0,19.0,88,0.00,,,0.00,meteohub,2013-03-18 15:31:00,
2013-03-18 11:36:00,31.8,28.8,29.89,SE,131,6.0,24.0,88,0.00,,,0.00,meteohub,2013-03-18 15:36:00,
2013-03-18 11:41:00,31.6,28.8,29.89,East,100,10.0,24.0,89,0.01,,,0.01,meteohub,2013-03-18 15:41:00,
2013-03-18 11:46:00,31.6,28.8,29.89,ESE,115,13.0,23.0,89,0.01,,,0.01,meteohub,2013-03-18 15:46:00,
2013-03-18 11:51:00,31.8,28.9,29.89,ESE,109,13.0,23.0,89,0.01,,,0.01,meteohub,2013-03-18 15:51:00,
2013-03-18 11:56:00,32.0,29.1,29.89,East,93,11.0,23.0,89,0.01,,,0.01,meteohub,2013-03-18 15:56:00,
2013-03-18 12:02:00,32.2,29.3,29.90,ESE,112,10.0,22.0,89,0.01,,,0.01,meteohub,2013-03-18 16:02:00,
2013-03-18 12:07:00,32.4,29.1,29.89,ESE,113,10.0,22.0,88,0.01,,,0.01,meteohub,2013-03-18 16:07:00,
2013-03-18 12:12:00,32.4,29.1,29.89,ESE,107,10.0,18.0,88,0.01,,,0.01,meteohub,2013-03-18 16:12:00,
2013-03-18 12:17:00,32.5,29.3,29.89,SE,132,7.0,19.0,88,0.01,,,0.01,meteohub,2013-03-18 16:17:00,
2013-03-18 12:22:00,32.5,29.3,29.89,ESE,103,11.0,19.0,88,0.01,,,0.01,meteohub,2013-03-18 16:22:00,
2013-03-18 12:27:00,32.5,29.3,29.89,SE,126,7.0,19.0,88,0.01,,,0.01,meteohub,2013-03-18 16:27:00,
2013-03-18 12:32:00,32.7,29.3,29.88,SE,134,12.0,18.0,87,0.01,,,0.01,meteohub,2013-03-18 16:32:00,
2013-03-18 12:37:00,32.5,29.3,29.88,SE,130,15.0,20.0,88,0.00,,,0.01,meteohub,2013-03-18 16:37:00,
2013-03-18 12:42:00,32.5,29.3,29.88,ESE,115,9.0,20.0,88,0.01,,,0.02,meteohub,2013-03-18 16:42:00,
2013-03-18 12:47:00,32.5,29.3,29.87,ESE,119,12.0,25.0,88,0.01,,,0.02,meteohub,2013-03-18 16:47:00,
2013-03-18 12:52:00,32.5,29.3,29.87,East,96,9.0,25.0,88,0.01,,,0.02,meteohub,2013-03-18 16:52:00,
2013-03-18 12:57:00,32.5,29.3,29.87,SE,129,15.0,25.0,88,0.01,,,0.02,meteohub,2013-03-18 16:57:00,
2013-03-18 13:02:00,32.5,29.3,29.86,SE,130,11.0,21.0,88,0.02,,,0.03,meteohub,2013-03-18 17:02:00,
2013-03-18 13:07:00,32.5,29.3,29.86,ESE,106,9.0,21.0,88,0.02,,,0.03,meteohub,2013-03-18 17:07:00,
2013-03-18 13:12:00,32.7,29.5,29.86,SE,130,9.0,18.0,88,0.02,,,0.03,meteohub,2013-03-18 17:12:00,
2013-03-18 13:17:00,32.7,29.5,29.86,SE,146,7.0,17.0,88,0.02,,,0.03,meteohub,2013-03-18 17:17:00,
2013-03-18 13:22:00,32.7,29.5,29.85,ESE,123,4.0,17.0,88,0.02,,,0.03,meteohub,2013-03-18 17:22:00,
2013-03-18 13:27:00,32.7,29.5,29.85,ESE,110,13.0,17.0,88,0.03,,,0.04,meteohub,2013-03-18 17:27:00,
2013-03-18 13:33:00,32.9,29.7,29.86,East,87,2.0,15.0,88,0.03,,,0.04,meteohub,2013-03-18 17:33:00,
2013-03-18 13:38:00,32.9,29.7,29.86,ESE,121,0.0,14.0,88,0.02,,,0.04,meteohub,2013-03-18 17:38:00,
2013-03-18 13:43:00,33.1,29.8,29.85,ESE,112,4.0,14.0,88,0.02,,,0.04,meteohub,2013-03-18 17:43:00,
2013-03-18 13:48:00,33.1,29.8,29.84,ESE,108,6.0,6.0,88,0.03,,,0.05,meteohub,2013-03-18 17:48:00,
2013-03-18 13:53:00,33.3,30.0,29.83,SSE,155,12.0,12.0,88,0.03,,,0.05,meteohub,2013-03-18 17:53:00,
2013-03-18 13:58:00,33.3,30.0,29.84,East,88,1.0,13.0,88,0.03,,,0.05,meteohub,2013-03-18 17:58:00,
2013-03-18 14:03:00,33.3,30.0,29.83,SE,126,4.0,13.0,88,0.02,,,0.05,meteohub,2013-03-18 18:03:00,
2013-03-18 14:08:00,33.3,30.0,29.82,South,171,6.0,13.0,88,0.02,,,0.05,meteohub,2013-03-18 18:08:00,
2013-03-18 14:13:00,33.4,30.0,29.82,ESE,108,4.0,18.0,87,0.02,,,0.05,meteohub,2013-03-18 18:13:00,
2013-03-18 14:18:00,33.4,30.0,29.81,North,0,16.0,18.0,87,0.02,,,0.05,meteohub,2013-03-18 18:18:00,
2013-03-18 14:23:00,33.6,30.2,29.81,SE,142,9.0,18.0,87,0.02,,,0.06,meteohub,2013-03-18 18:23:00,
2013-03-18 14:28:00,33.6,30.2,29.80,SE,141,9.0,18.0,87,0.02,,,0.06,meteohub,2013-03-18 18:28:00,
2013-03-18 14:33:00,33.6,30.2,29.80,ESE,117,10.0,23.0,87,0.02,,,0.06,meteohub,2013-03-18 18:33:00,
2013-03-18 14:38:00,33.6,30.2,29.79,SSE,150,11.0,23.0,87,0.02,,,0.06,meteohub,2013-03-18 18:38:00,
2013-03-18 14:43:00,33.6,29.8,29.78,South,174,0.0,26.0,86,0.02,,,0.06,meteohub,2013-03-18 18:43:00,
2013-03-18 14:48:00,33.6,29.8,29.77,SE,128,11.0,26.0,86,0.01,,,0.06,meteohub,2013-03-18 18:48:00,
2013-03-18 14:54:00,34.0,30.2,29.77,SE,145,6.0,26.0,86,0.01,,,0.06,meteohub,2013-03-18 18:54:00,
2013-03-18 14:59:00,34.0,30.2,29.76,ESE,119,7.0,23.0,86,0.01,,,0.06,meteohub,2013-03-18 18:59:00,
2013-03-18 15:04:00,34.0,30.2,29.75,SE,136,12.0,24.0,86,0.01,,,0.06,meteohub,2013-03-18 19:04:00,
2013-03-18 15:09:00,34.2,30.2,29.75,SE,126,7.0,25.0,85,0.01,,,0.06,meteohub,2013-03-18 19:09:00,
2013-03-18 15:14:00,34.2,30.2,29.75,SE,127,13.0,25.0,85,0.01,,,0.06,meteohub,2013-03-18 19:14:00,
2013-03-18 15:19:00,34.3,30.4,29.75,SE,146,17.0,25.0,85,0.01,,,0.06,meteohub,2013-03-18 19:19:00,
2013-03-18 15:24:00,34.3,30.4,29.75,South,182,14.0,21.0,85,0.00,,,0.06,meteohub,2013-03-18 19:24:00,
2013-03-18 15:29:00,34.3,30.4,29.75,North,0,13.0,21.0,85,0.00,,,0.06,meteohub,2013-03-18 19:29:00,
2013-03-18 15:34:00,34.3,30.6,29.75,SSW,211,4.0,24.0,86,0.00,,,0.06,meteohub,2013-03-18 19:34:00,
2013-03-18 15:39:00,34.3,30.6,29.74,SE,132,12.0,24.0,86,0.00,,,0.06,meteohub,2013-03-18 19:39:00,
2013-03-18 15:44:00,34.3,30.6,29.74,SSE,151,17.0,22.0,86,0.00,,,0.06,meteohub,2013-03-18 19:44:00,
2013-03-18 15:50:00,34.3,30.6,29.74,SSE,161,10.0,24.0,86,0.00,,,0.06,meteohub,2013-03-18 19:50:00,
2013-03-18 15:55:00,34.3,30.6,29.73,SE,129,16.0,26.0,86,0.00,,,0.06,meteohub,2013-03-18 19:55:00,
2013-03-18 16:00:00,34.3,30.6,29.72,North,0,17.0,26.0,86,0.00,,,0.06,meteohub,2013-03-18 20:00:00,
2013-03-18 16:05:00,34.3,30.9,29.70,South,174,22.0,26.0,87,0.00,,,0.06,meteohub,2013-03-18 20:05:00,
2013-03-18 16:10:00,34.3,30.9,29.70,SSE,166,11.0,28.0,87,0.00,,,0.06,meteohub,2013-03-18 20:10:00,
2013-03-18 16:15:00,34.3,30.9,29.68,SE,140,16.0,28.0,87,0.00,,,0.06,meteohub,2013-03-18 20:15:00,
2013-03-18 16:20:00,34.3,30.9,29.68,SSE,153,21.0,34.0,87,0.00,,,0.06,meteohub,2013-03-18 20:20:00,
2013-03-18 16:25:00,34.3,30.9,29.68,SE,134,7.0,34.0,87,0.00,,,0.06,meteohub,2013-03-18 20:25:00,
2013-03-18 16:30:00,34.3,30.9,29.68,North,0,14.0,34.0,87,0.00,,,0.06,meteohub,2013-03-18 20:30:00,
2013-03-18 16:35:00,34.3,30.9,29.69,North,0,23.0,35.0,87,0.00,,,0.06,meteohub,2013-03-18 20:35:00,
2013-03-18 16:40:00,34.5,31.1,29.69,North,0,25.0,35.0,87,0.00,,,0.06,meteohub,2013-03-18 20:40:00,
2013-03-18 16:45:00,33.4,31.8,29.68,South,191,23.0,38.0,94,0.00,,,0.06,meteohub,2013-03-18 20:45:00,
2013-03-18 16:50:00,33.4,32.4,29.68,SSE,159,12.0,38.0,96,0.00,,,0.06,meteohub,2013-03-18 20:50:00,
2013-03-18 16:55:00,33.4,32.7,29.68,SSE,150,17.0,30.0,97,0.00,,,0.06,meteohub,2013-03-18 20:55:00,
2013-03-18 17:00:00,33.4,32.9,29.68,SSE,158,21.0,30.0,98,0.00,,,0.06,meteohub,2013-03-18 21:00:00,
2013-03-18 17:05:00,33.4,32.9,29.67,SSW,204,2.0,31.0,98,0.00,,,0.06,meteohub,2013-03-18 21:05:00,
2013-03-18 17:10:00,33.6,33.1,29.67,North,0,11.0,31.0,98,0.00,,,0.06,meteohub,2013-03-18 21:10:00,
2013-03-18 17:16:00,33.6,33.1,29.67,South,171,19.0,31.0,98,0.01,,,0.07,meteohub,2013-03-18 21:16:00,
2013-03-18 17:21:00,33.8,33.3,29.67,South,179,24.0,24.0,98,0.01,,,0.07,meteohub,2013-03-18 21:21:00,
2013-03-18 17:26:00,33.8,33.3,29.66,SSE,159,13.0,26.0,98,0.01,,,0.07,meteohub,2013-03-18 21:26:00,
2013-03-18 17:31:00,33.8,33.3,29.67,SE,134,16.0,26.0,98,0.02,,,0.08,meteohub,2013-03-18 21:31:00,
2013-03-18 17:36:00,34.2,33.6,29.65,SSE,156,14.0,28.0,98,0.02,,,0.08,meteohub,2013-03-18 21:36:00,
2013-03-18 17:41:00,34.3,33.8,29.64,South,170,23.0,29.0,98,0.03,,,0.09,meteohub,2013-03-18 21:41:00,
2013-03-18 17:46:00,34.3,33.6,29.65,SE,140,9.0,31.0,97,0.04,,,0.10,meteohub,2013-03-18 21:46:00,
2013-03-18 17:51:00,34.3,33.3,29.65,SSE,163,11.0,31.0,96,0.04,,,0.10,meteohub,2013-03-18 21:51:00,
2013-03-18 17:56:00,34.3,33.1,29.64,SSE,155,12.0,31.0,95,0.04,,,0.10,meteohub,2013-03-18 21:56:00,
2013-03-18 18:02:00,34.3,32.7,29.63,North,0,7.0,30.0,94,0.04,,,0.10,meteohub,2013-03-18 22:02:00,
2013-03-18 18:07:00,34.5,32.7,29.63,SSE,161,13.0,26.0,93,0.04,,,0.10,meteohub,2013-03-18 22:07:00,
2013-03-18 18:12:00,34.5,32.7,29.62,SE,135,25.0,29.0,93,0.04,,,0.10,meteohub,2013-03-18 22:12:00,
2013-03-18 18:17:00,34.7,32.5,29.62,SSE,161,15.0,29.0,92,0.04,,,0.11,meteohub,2013-03-18 22:17:00,
2013-03-18 18:22:00,34.9,32.7,29.62,SSE,161,16.0,29.0,92,0.04,,,0.11,meteohub,2013-03-18 22:22:00,
2013-03-18 18:27:00,35.1,32.9,29.62,ESE,113,4.0,25.0,92,0.03,,,0.11,meteohub,2013-03-18 22:27:00,
2013-03-18 18:32:00,35.4,33.1,29.61,SSE,163,19.0,25.0,91,0.03,,,0.11,meteohub,2013-03-18 22:32:00,
2013-03-18 18:37:00,35.4,33.1,29.62,East,92,5.0,21.0,91,0.02,,,0.11,meteohub,2013-03-18 22:37:00,
2013-03-18 18:42:00,35.4,33.1,29.62,SE,132,11.0,25.0,91,0.01,,,0.11,meteohub,2013-03-18 22:42:00,
2013-03-18 18:47:00,35.4,33.1,29.62,SSW,193,0.0,25.0,91,0.02,,,0.11,meteohub,2013-03-18 22:47:00,
2013-03-18 18:52:00,35.6,33.4,29.63,SSE,161,12.0,19.0,92,0.03,,,0.13,meteohub,2013-03-18 22:52:00,
2013-03-18 18:57:00,35.8,33.4,29.62,ESE,103,16.0,21.0,91,0.03,,,0.13,meteohub,2013-03-18 22:57:00,
2013-03-18 19:02:00,35.8,33.4,29.61,SE,137,18.0,25.0,91,0.03,,,0.13,meteohub,2013-03-18 23:02:00,
2013-03-18 19:07:00,35.8,33.4,29.61,South,174,3.0,25.0,91,0.03,,,0.13,meteohub,2013-03-18 23:07:00,
2013-03-18 19:12:00,36.0,33.6,29.61,SE,134,18.0,25.0,91,0.02,,,0.13,meteohub,2013-03-18 23:12:00,
2013-03-18 19:17:00,36.1,33.8,29.60,SSW,207,32.0,32.0,91,0.02,,,0.13,meteohub,2013-03-18 23:17:00,
2013-03-18 19:22:00,36.1,33.8,29.59,SSW,211,10.0,32.0,91,0.02,,,0.13,meteohub,2013-03-18 23:22:00,
2013-03-18 19:28:00,36.3,34.0,29.58,WSW,242,5.0,32.0,91,0.02,,,0.13,meteohub,2013-03-18 23:28:00,
2013-03-18 19:33:00,36.5,33.8,29.58,North,0,13.0,32.0,90,0.02,,,0.13,meteohub,2013-03-18 23:33:00,
2013-03-18 19:38:00,36.7,34.0,29.57,North,0,18.0,33.0,90,0.02,,,0.13,meteohub,2013-03-18 23:38:00,
2013-03-18 19:43:00,36.7,34.0,29.57,SSE,165,24.0,33.0,90,0.02,,,0.13,meteohub,2013-03-18 23:43:00,
2013-03-18 19:48:00,36.9,34.2,29.58,SSW,204,28.0,31.0,90,0.01,,,0.13,meteohub,2013-03-18 23:48:00,
2013-03-18 19:53:00,36.9,34.2,29.57,ESE,123,22.0,39.0,90,0.00,,,0.13,meteohub,2013-03-18 23:53:00,
2013-03-18 19:58:00,36.9,34.2,29.58,SSE,161,11.0,39.0,90,0.00,,,0.13,meteohub,2013-03-18 23:58:00,
2013-03-18 20:03:00,37.0,34.2,29.58,South,173,24.0,39.0,89,0.00,,,0.13,meteohub,2013-03-19 00:03:00,
2013-03-18 20:08:00,37.0,34.2,29.58,SSE,157,22.0,39.0,89,0.00,,,0.13,meteohub,2013-03-19 00:08:00,
2013-03-18 20:13:00,37.0,34.2,29.59,South,175,14.0,39.0,89,0.00,,,0.13,meteohub,2013-03-19 00:13:00,
2013-03-18 20:18:00,37.2,34.3,29.59,SSE,163,21.0,34.0,89,0.00,,,0.13,meteohub,2013-03-19 00:18:00,
2013-03-18 20:23:00,37.2,34.3,29.58,South,171,20.0,40.0,89,0.00,,,0.13,meteohub,2013-03-19 00:23:00,
2013-03-18 20:28:00,37.2,34.3,29.58,South,170,21.0,40.0,89,0.00,,,0.13,meteohub,2013-03-19 00:28:00,
2013-03-18 20:33:00,37.2,34.3,29.58,SSE,159,26.0,40.0,89,0.00,,,0.13,meteohub,2013-03-19 00:33:00,
2013-03-18 20:38:00,37.0,34.2,29.57,North,0,16.0,38.0,89,0.00,,,0.13,meteohub,2013-03-19 00:38:00,
2013-03-18 20:43:00,37.0,34.3,29.58,SSW,202,22.0,34.0,90,0.00,,,0.13,meteohub,2013-03-19 00:43:00,
2013-03-18 20:48:00,37.0,34.3,29.58,SSW,195,33.0,33.0,90,0.00,,,0.13,meteohub,2013-03-19 00:48:00,
2013-03-18 20:53:00,37.0,34.7,29.58,West,259,16.0,35.0,91,0.00,,,0.13,meteohub,2013-03-19 00:53:00,
2013-03-18 20:59:00,36.9,34.5,29.58,SE,145,25.0,39.0,91,0.00,,,0.13,meteohub,2013-03-19 00:59:00,
2013-03-18 21:04:00,36.9,34.5,29.58,SSE,160,26.0,39.0,91,0.00,,,0.13,meteohub,2013-03-19 01:04:00,
2013-03-18 21:09:00,36.9,34.5,29.58,South,176,15.0,39.0,91,0.00,,,0.13,meteohub,2013-03-19 01:09:00,
2013-03-18 21:14:00,37.0,34.7,29.59,South,169,17.0,36.0,91,0.00,,,0.13,meteohub,2013-03-19 01:14:00,
2013-03-18 21:19:00,37.0,34.7,29.58,South,189,23.0,36.0,91,0.00,,,0.13,meteohub,2013-03-19 01:19:00,
2013-03-18 21:24:00,37.2,34.9,29.58,South,175,17.0,34.0,91,0.00,,,0.13,meteohub,2013-03-19 01:24:00,
2013-03-18 21:29:00,37.2,34.5,29.57,SSW,195,29.0,30.0,90,0.00,,,0.13,meteohub,2013-03-19 01:29:00,
2013-03-18 21:34:00,37.2,34.5,29.58,SSE,159,33.0,34.0,90,0.00,,,0.13,meteohub,2013-03-19 01:34:00,
2013-03-18 21:39:00,37.4,34.7,29.58,SE,143,21.0,34.0,90,0.00,,,0.13,meteohub,2013-03-19 01:39:00,
2013-03-18 21:44:00,37.6,34.9,29.58,SSE,167,22.0,34.0,90,0.00,,,0.13,meteohub,2013-03-19 01:44:00,
2013-03-18 21:49:00,37.6,34.9,29.57,South,173,17.0,33.0,90,0.00,,,0.13,meteohub,2013-03-19 01:49:00,
2013-03-18 21:54:00,37.8,35.1,29.57,SSE,167,17.0,34.0,90,0.00,,,0.13,meteohub,2013-03-19 01:54:00,
2013-03-18 21:59:00,37.9,35.2,29.57,SSE,155,14.0,38.0,90,0.00,,,0.13,meteohub,2013-03-19 01:59:00,
2013-03-18 22:04:00,37.8,35.1,29.56,SSE,151,23.0,38.0,90,0.00,,,0.13,meteohub,2013-03-19 02:04:00,
2013-03-18 22:09:00,37.9,35.2,29.56,SSE,147,13.0,38.0,90,0.00,,,0.13,meteohub,2013-03-19 02:09:00,
2013-03-18 22:15:00,37.9,35.2,29.57,SSW,197,21.0,40.0,90,0.00,,,0.13,meteohub,2013-03-19 02:15:00,
2013-03-18 22:20:00,37.9,35.2,29.57,South,187,22.0,40.0,90,0.00,,,0.13,meteohub,2013-03-19 02:20:00,
2013-03-18 22:25:00,37.9,35.2,29.58,SSE,149,20.0,40.0,90,0.00,,,0.13,meteohub,2013-03-19 02:25:00,
2013-03-18 22:30:00,37.9,35.2,29.58,SSE,164,12.0,38.0,90,0.00,,,0.13,meteohub,2013-03-19 02:30:00,
2013-03-18 22:35:00,37.9,35.2,29.58,South,189,22.0,33.0,90,0.00,,,0.13,meteohub,2013-03-19 02:35:00,
2013-03-18 22:40:00,38.1,35.8,29.58,SSW,203,17.0,31.0,91,0.00,,,0.13,meteohub,2013-03-19 02:40:00,
2013-03-18 22:45:00,38.1,35.8,29.58,South,169,16.0,30.0,91,0.00,,,0.13,meteohub,2013-03-19 02:45:00,
2013-03-18 22:50:00,37.9,35.6,29.58,SSE,149,17.0,32.0,91,0.00,,,0.13,meteohub,2013-03-19 02:50:00,
2013-03-18 22:55:00,37.9,35.6,29.58,South,188,16.0,32.0,91,0.00,,,0.13,meteohub,2013-03-19 02:55:00,
2013-03-18 23:00:00,37.8,35.6,29.58,South,189,16.0,31.0,92,0.00,,,0.13,meteohub,2013-03-19 03:00:00,
2013-03-18 23:05:00,37.8,35.6,29.58,South,188,15.0,29.0,92,0.00,,,0.13,meteohub,2013-03-19 03:05:00,
2013-03-18 23:10:00,37.8,35.6,29.58,South,190,20.0,29.0,92,0.00,,,0.13,meteohub,2013-03-19 03:10:00,
2013-03-18 23:15:00,37.8,35.6,29.58,South,190,21.0,32.0,92,0.00,,,0.13,meteohub,2013-03-19 03:15:00,
2013-03-18 23:20:00,37.9,35.8,29.59,SSE,153,21.0,32.0,92,0.00,,,0.13,meteohub,2013-03-19 03:20:00,
2013-03-18 23:25:00,37.9,35.8,29.59,SSW,192,17.0,32.0,92,0.00,,,0.13,meteohub,2013-03-19 03:25:00,
2013-03-18 23:30:00,37.8,36.0,29.59,South,187,10.0,32.0,93,0.00,,,0.13,meteohub,2013-03-19 03:30:00,
2013-03-18 23:35:00,37.8,36.0,29.59,SW,224,14.0,27.0,93,0.00,,,0.13,meteohub,2013-03-19 03:35:00,
2013-03-18 23:40:00,37.8,36.0,29.60,South,178,9.0,24.0,93,0.00,,,0.13,meteohub,2013-03-19 03:40:00,
2013-03-18 23:45:00,37.6,35.8,29.60,SSE,159,12.0,24.0,93,0.00,,,0.13,meteohub,2013-03-19 03:45:00,
2013-03-18 23:51:00,37.6,36.0,29.60,South,179,17.0,23.0,94,0.00,,,0.13,meteohub,2013-03-19 03:51:00,
2013-03-18 23:56:00,37.8,36.1,29.60,South,175,9.0,25.0,94,0.00,,,0.13,meteohub,2013-03-19 03:56:00,